Regional Weather Roundup
Issued by NWS

Home | Current Version | Previous Version | Text Only | Print | Product List | Glossary On
Versions: 1 2 3 4 5 6 7 8 9 10 11 12 13 14 15 16 17 18 19 20 21 22 23 24 25 26 27 28 29 30 31 32 33 34 35 36 37 38 39 40 41 42 43 44 45 46 47 48 49 50
000
ASUS45 KPSR 030300
RWRAZ

ARIZONA HOURLY REGIONAL WEATHER ROUNDUP
NATIONAL WEATHER SERVICE PHOENIX AZ
800 PM MST WED SEP 02 2015

NOTE: FAIR INDICATES FEW OR NO CLOUDS BELOW 12,000 FEET WITH NO
SIGNIFICANT WEATHER AND/OR OBSTRUCTIONS TO VISIBILITY.

AZZ001>003-036-030400-
NORTHWEST ARIZONA

CITY           SKY/WX    TMP DP  RH WIND       PRES   REMARKS
KINGMAN        PTCLDY    78  35  21 S9        29.97R
$$

AZZ004>008-015-016-018-030400-
NORTH CENTRAL ARIZONA

CITY           SKY/WX    TMP DP  RH WIND       PRES   REMARKS
GRAND CANYON   MOCLDY    62  42  47 SW3       30.22R
WILLIAMS       PTCLDY    66  39  37 S7        30.28R
PRESCOTT       CLEAR     74  39  28 S6        30.13R
FLAGSTAFF      NOT AVBL
PAYSON         MOCLDY    73  39  29 CALM      30.17R
PAGE           CLOUDY    82  53  36 S15G23    30.00R
$$

AZZ009>014-017-030400-
NORTHEAST ARIZONA

CITY           SKY/WX    TMP DP  RH WIND       PRES   REMARKS
WINSLOW        NOT AVBL
SAINT JOHNS    CLOUDY    62  55  77 S12       30.21R
WINDOW ROCK    CLOUDY    60  49  66 N7        30.29R
SHOW LOW       MOCLDY    59  48  67 S5        30.27R
$$

AZZ023-030400-
GREATER PHOENIX AREA

CITY           SKY/WX    TMP DP  RH WIND       PRES   REMARKS
PHOENIX        MOCLDY    97  50  20 NW7       29.81R
GLENDALE       MOCLDY    97  54  23 S7        29.83R
DEER VALLEY    PTCLDY    92  49  22 E3        29.84R
SCOTTSDALE     MOCLDY    94  50  22 N3        29.86R
MESA-FALCON    MOCLDY    93  48  21 N7        29.84R
MESA-GATEWAY   MOCLDY    93  55  27 VRB7      29.86R
CHANDLER       MOCLDY    95  55  26 CALM      29.83R
$$

AZZ027-028-030400-
SOUTHWEST MARICOPA COUNTY AND PINAL COUNTY

CITY           SKY/WX    TMP DP  RH WIND       PRES   REMARKS
CASA GRANDE    MOCLDY    91  55  29 CALM      29.84R
$$

AZZ503-504-507>509-030400-
SOUTHEAST ARIZONA

CITY           SKY/WX    TMP DP  RH WIND       PRES   REMARKS
TUCSON         CLOUDY    84  57  39 SE10      29.98R
DAVIS-MONTHAN  CLOUDY    84  55  37 SE10      29.97R
RYAN FIELD     CLEAR     88  57  35 E8        29.95R
NOGALES        CLOUDY    70  62  76 SW5       30.08R
SIERRA VISTA   CLOUDY    69  62  76 SE9       30.15R
SAFFORD        CLOUDY    75  59  57 SE10      30.05R
$$

AZZ020-021-025-026-031-030400-
SOUTHWEST ARIZONA

CITY           SKY/WX    TMP DP  RH WIND       PRES   REMARKS
YUMA           NOT AVBL
$$

CAZ031-033-041-043-047-048-061-030400-
SOUTHERN CALIFORNIA

CITY           SKY/WX    TMP DP  RH WIND       PRES   REMARKS
DOWNTOWN L.A.  CLEAR     70  60  70 W3        29.89R
L.A. AIRPORT   PTCLDY    68  61  78 W8        29.90R
SAN DIEGO      MOCLDY    70  58  65 NW7       29.92S
BURBANK        CLEAR     71  58  63 S5        29.89R
ONTARIO        PTCLDY    73  58  59 SW13      29.89R
RIVERSIDE      CLEAR     73  59  61 W8        29.89R
PALM SPRINGS   PTCLDY    95  36  12 NW15      29.77R
EL CENTRO NAS  PTCLDY    93  44  18 W14       29.74R
IMPERIAL       CLEAR     93  49  22 W9        29.71R
BLYTHE         PTCLDY    95  49  20 S10       29.74R
$$

NVZ020-UTZ003-030400-
SOUTHERN NEVADA-UTAH

CITY           SKY/WX    TMP DP  RH WIND       PRES   REMARKS
LAS VEGAS      NOT AVBL
SALT LAKE CITY PTCLDY    83  40  21 S12       29.85R
$$

NMZ009-TXZ055-030400-
NEW MEXICO-WEST TEXAS

CITY           SKY/WX    TMP DP  RH WIND       PRES   REMARKS
ALBUQUERQUE    CLOUDY    76  46  34 NW7       30.17R
EL PASO        CLOUDY    88  47  24 W17G25    30.01R
$$


........................KEY........................
SKY/WX - SKY CONDITION/WEATHER
TMP    - TEMPERATURE IN FAHRENHEIT
DP     - DEW POINT IN FAHRENHEIT
RH     - RELATIVE HUMIDITY IN PERCENT
WIND   - DIRECTION AND SPEED IN MILES PER HOUR (MPH)
VRB    - VARIABLE WIND DIRECTION
PRES   - MEAN SEA LEVEL PRESSURE IN INCHES OF MERCURY
         F - FALLING PRESSURE   R - RISING PRESSURE
         S - STEADY PRESSURE
VSB    - VISIBILITY IN MILES
HX     - HEAT INDEX IN FAHRENHEIT
WCI    - WIND CHILL INDEX IN FAHRENHEIT
TC     - TEMPERATURE IN CELSIUS WHICH IS ALSO KNOWN AS
         TEMPERATURE IN CENTIGRADE
AFB    - AIR FORCE BASE
         LUKE AFB IS LUKE AIR FORCE BASE
         DAVIS-MONTHAN IS DAVIS-MONTHAN AIR FORCE BASE
NAS    - NAVAL AIR STATION
         EL CENTRO NAS IS EL CENTRO NAVAL AIR STATION
N/A    - NOT AVAILABLE



USA.gov is the U.S. government's official web portal to all federal, state and local government web resources and services.